Location: Cheyres
(46.8153°N, 6.7877°E)
Time: 01:50:45
(UTC+00:00)

CUBEBUG 2 - Pass Details

Date: 01 July 2022
Orbit: 584 x 692 km, 97.7° (Epoch: 11 August)

Event Time Altitude Azimuth Distance (km) Brightness Sun altitude
Rises 02:13:59 0° 18° (NNE) 2,831 ? -11.6°
Reaches altitude 10° 02:16:12 10° 24° (NNE) 1,933 ? -11.3°
Maximum altitude 02:20:16 48° 99° (E) 788 ? -10.9°
Drops below altitude 10° 02:24:23 10° 175° (S) 1,963 ? -10.5°
Enters shadow 02:25:07 - 177° (S) 2,259 ? -10.4°
